Weather History for Tehachapi, CA

Change the Weather History Date:

Saturday, February 16, 2013

  Actual Average Record
Temperature  
Mean Temperature 44 °F -  
Max Temperature 60 °F 54 °F 60 °F (2013)
Min Temperature 28 °F 33 °F 23 °F (2012)
Degree Days  
Heating Degree Days 21    
Moisture  
Dew Point 15 °F    
Average Humidity 33    
Maximum Humidity 70    
Minimum Humidity 13    
Precipitation  
Precipitation 0.00 in - - ()
Sea Level Pressure  
Sea Level Pressure 30.20 in    
Wind  
Wind Speed 10 mph (ESE)    
Max Wind Speed 20 mph    
Max Gust Speed 28 mph    
Visibility 10 miles    
Events      
Averages and records for this station are not official NWS values.
T = Trace of Precipitation, MM = Missing Value Source: NWS Daily Summary

Daily Weather History Graph

Daily Weather History Graph

Search for Another Location

Airport:

Trip Planner

Search our weather history database for the weather conditions in past years. The results will help you decide how hot, cold, wet, or windy it might be!

Date:

Astronomy

Feb. 16, 2013 Rise Set
Actual Time 6:38 AM PST 5:37 PM PST
Civil Twilight 6:12 AM PST 6:03 PM PST
Nautical Twilight 5:42 AM PST 6:33 PM PST
Astronomical Twilight 5:13 AM PST 7:02 PM PST
Moon 10:11 AM PST (2/16) No Moon Set
Length of Visible Light 11h 50m
Length of Day
10h 59m
Waxing Crescent, 40% of the Moon is Illuminated
Feb 16
Waxing Crescent
Feb 17
First Quarter
Feb 25
Full
Mar 4
Last Quarter
Mar 11
New

Hourly Weather History & Observations

Time (PST) Temp. Windchill Dew Point Humidity Pressure Visibility Wind Dir Wind Speed Gust Speed Precip Events Conditions
12:15 AM 44.6 °F 39.7 °F 14.0 °F 29% 30.34 in 10.0 mi East 9.2 mph - N/A   Clear
12:35 AM 42.8 °F 36.6 °F 15.8 °F 34% 30.33 in 10.0 mi ESE 11.5 mph - N/A   Clear
12:55 AM 42.8 °F 37.0 °F 15.8 °F 34% 30.33 in 10.0 mi ESE 10.4 mph - N/A   Clear
1:15 AM 44.6 °F 39.2 °F 14.0 °F 29% 30.33 in 10.0 mi ESE 10.4 mph - N/A   Clear
1:35 AM 44.6 °F 41.4 °F 14.0 °F 29% 30.33 in 10.0 mi ESE 5.8 mph - N/A   Clear
1:55 AM 41.0 °F 34.7 °F 14.0 °F 33% 30.33 in 10.0 mi East 10.4 mph - N/A   Clear
2:15 AM 44.6 °F 39.2 °F 12.2 °F 27% 30.32 in 10.0 mi East 10.4 mph - N/A   Clear
2:35 AM 46.4 °F 41.5 °F 12.2 °F 25% 30.31 in 10.0 mi East 10.4 mph - N/A   Clear
2:55 AM 46.4 °F 41.5 °F 12.2 °F 25% 30.30 in 10.0 mi East 10.4 mph - N/A   Clear
3:15 AM 46.4 °F 40.7 °F 12.2 °F 25% 30.30 in 10.0 mi East 12.7 mph - N/A   Clear
3:35 AM 46.4 °F 41.1 °F 12.2 °F 25% 30.29 in 10.0 mi East 11.5 mph 17.3 mph N/A   Clear
4:15 AM 46.4 °F 41.1 °F 14.0 °F 27% 30.28 in 10.0 mi East 11.5 mph - N/A   Clear
4:35 AM 44.6 °F 39.7 °F 14.0 °F 29% 30.28 in 10.0 mi East 9.2 mph - N/A   Clear
4:55 AM 44.6 °F 40.2 °F 14.0 °F 29% 30.28 in 10.0 mi East 8.1 mph - N/A   Clear
5:15 AM 44.6 °F 38.8 °F 14.0 °F 29% 30.28 in 10.0 mi East 11.5 mph - N/A   Clear
5:35 AM 44.6 °F 38.8 °F 14.0 °F 29% 30.27 in 10.0 mi East 11.5 mph - N/A   Clear
5:55 AM 44.6 °F 39.7 °F 14.0 °F 29% 30.28 in 10.0 mi East 9.2 mph - N/A   Clear
6:15 AM 44.6 °F 39.7 °F 14.0 °F 29% 30.27 in 10.0 mi East 9.2 mph - N/A   Clear
6:35 AM 46.4 °F 41.5 °F 14.0 °F 27% 30.27 in 10.0 mi East 10.4 mph - N/A   Clear
6:55 AM 46.4 °F 40.7 °F 14.0 °F 27% 30.27 in 10.0 mi ESE 12.7 mph 16.1 mph N/A   Clear
7:15 AM 48.2 °F - 14.0 °F 25% 30.28 in 10.0 mi SE 13.8 mph - N/A   Clear
7:35 AM 48.2 °F - 14.0 °F 25% 30.28 in 10.0 mi SE 12.7 mph - N/A   Clear
10:15 AM 57.2 °F - 10.4 °F 16% 30.27 in 10.0 mi SE 19.6 mph 26.5 mph N/A   Clear
10:35 AM 57.2 °F - 10.4 °F 16% 30.27 in 10.0 mi ESE 19.6 mph 27.6 mph N/A   Clear
10:55 AM 57.2 °F - 8.6 °F 14% 30.27 in 10.0 mi SE 17.3 mph 24.2 mph N/A   Clear
11:15 AM 57.2 °F - 10.4 °F 16% 30.26 in 10.0 mi SE 16.1 mph 23.0 mph N/A   Clear
11:35 AM 57.2 °F - 8.6 °F 14% 30.26 in 10.0 mi SE 15.0 mph 24.2 mph N/A   Clear
11:55 AM 57.2 °F - 8.6 °F 14% 30.24 in 10.0 mi ESE 17.3 mph 24.2 mph N/A   Clear
12:15 PM 59.0 °F - 8.6 °F 14% 30.22 in 10.0 mi ESE 19.6 mph 25.3 mph N/A   Clear
12:35 PM 59.0 °F - 8.6 °F 14% 30.21 in 10.0 mi ESE 18.4 mph 25.3 mph N/A   Clear
12:55 PM 57.2 °F - 8.6 °F 14% 30.19 in 10.0 mi ESE 17.3 mph 23.0 mph N/A   Clear
1:15 PM 59.0 °F - 8.6 °F 14% 30.19 in 10.0 mi ESE 17.3 mph 23.0 mph N/A   Clear
1:35 PM 59.0 °F - 8.6 °F 14% 30.18 in 10.0 mi ESE 15.0 mph 20.7 mph N/A   Clear
1:55 PM 59.0 °F - 8.6 °F 14% 30.17 in 10.0 mi ESE 12.7 mph 17.3 mph N/A   Clear
2:15 PM 60.8 °F - 8.6 °F 13% 30.16 in 10.0 mi ESE 11.5 mph - N/A   Clear
2:35 PM 60.8 °F - 8.6 °F 13% 30.16 in 10.0 mi SE 9.2 mph - N/A   Clear
2:55 PM 59.0 °F - 8.6 °F 14% 30.15 in 10.0 mi ESE 9.2 mph - N/A   Clear
3:15 PM 59.0 °F - 8.6 °F 14% 30.14 in 10.0 mi ESE 12.7 mph 16.1 mph N/A   Clear
3:35 PM 59.0 °F - 8.6 °F 14% 30.14 in 10.0 mi SE 8.1 mph - N/A   Clear
3:55 PM 59.0 °F - 8.6 °F 14% 30.14 in 10.0 mi SE 8.1 mph - N/A   Clear
4:15 PM 59.0 °F - 8.6 °F 14% 30.13 in 10.0 mi SE 5.8 mph - N/A   Clear
4:35 PM 59.0 °F - 8.6 °F 14% 30.13 in 10.0 mi SE 8.1 mph - N/A   Clear
4:55 PM 57.2 °F - 10.4 °F 16% 30.12 in 10.0 mi SE 4.6 mph - N/A   Clear
5:15 PM 53.6 °F - 10.4 °F 18% 30.12 in 10.0 mi SE 4.6 mph - N/A   Clear
5:35 PM 53.6 °F - 10.4 °F 18% 30.12 in 10.0 mi East 3.5 mph - N/A   Clear
5:55 PM 50.0 °F - 28.4 °F 43% 30.12 in 9.0 mi NNW 4.6 mph - N/A   Clear
6:15 PM 46.4 °F 41.9 °F 32.0 °F 57% 30.12 in 10.0 mi NNW 9.2 mph - N/A   Clear
6:35 PM 46.4 °F 45.2 °F 30.2 °F 53% 30.12 in 10.0 mi West 3.5 mph - N/A   Clear
6:55 PM 48.2 °F - 32.0 °F 54% 30.12 in 10.0 mi WSW 4.6 mph - N/A   Clear
7:15 PM 46.4 °F 45.2 °F 32.0 °F 57% 30.12 in 10.0 mi WSW 3.5 mph - N/A   Clear
7:35 PM 41.0 °F - 26.6 °F 57% 30.12 in 10.0 mi Calm Calm - N/A   Clear
7:55 PM 41.0 °F - 28.4 °F 61% 30.12 in 10.0 mi Calm Calm - N/A   Clear
8:15 PM 35.6 °F 29.2 °F 26.6 °F 70% 30.12 in 9.0 mi SE 8.1 mph - N/A   Clear
8:35 PM 35.6 °F - 23.0 °F 60% 30.12 in 10.0 mi Calm Calm - N/A   Clear
8:55 PM 35.6 °F - 24.8 °F 65% 30.12 in 10.0 mi Calm Calm - N/A   Clear
9:15 PM 35.6 °F - 21.2 °F 56% 30.11 in 10.0 mi Calm Calm - N/A   Clear
9:35 PM 32.0 °F 27.5 °F 21.2 °F 64% 30.11 in 10.0 mi East 4.6 mph - N/A   Clear
9:55 PM 32.0 °F - 23.0 °F 69% 30.11 in 10.0 mi Calm Calm - N/A   Clear
10:15 PM 32.0 °F - 21.2 °F 64% 30.11 in 10.0 mi Calm Calm - N/A   Clear
10:35 PM 30.2 °F - 19.4 °F 64% 30.10 in 10.0 mi Calm Calm - N/A   Clear
10:55 PM 30.2 °F 26.7 °F 19.4 °F 64% 30.09 in 10.0 mi ENE 3.5 mph - N/A   Clear
11:15 PM 28.4 °F 22.2 °F 19.4 °F 69% 30.09 in 10.0 mi SE 5.8 mph - N/A   Clear
11:35 PM 28.4 °F 23.3 °F 19.4 °F 69% 30.08 in 10.0 mi ESE 4.6 mph - N/A   Clear
11:55 PM 28.4 °F - 19.4 °F 69% 30.08 in 10.0 mi Calm Calm - N/A   Clear